Weather History for Alamosa, CO

Change the Weather History Date:

Sunday, January 19, 2014

  Actual Average Record
Temperature  
Mean Temperature 11 °F 16 °F  
Max Temperature 29 °F 34 °F 56 °F (2000)
Min Temperature -7 °F -2 °F -40 °F (1984)
Degree Days  
Heating Degree Days 54 49  
Month to date heating degree days 1042 931  
Since 1 July heating degree days 4925 4568  
Cooling Degree Days 0 0  
Month to date cooling degree days 0 0  
Year to date cooling degree days 0 0  
Moisture  
Dew Point -3 °F    
Average Humidity 72    
Maximum Humidity 91    
Minimum Humidity 53    
Precipitation  
Precipitation 0.00 in 0.01 in 0.28 in (1938)
Month to date precipitation T 0.15  
Year to date precipitation T 0.15  
Snow  
Snow 0.00 in 0.10 in 4.00 in (1938)
Month to date snowfall T 2.2  
Since 1 July snowfall 25.6 12.5  
Snow Depth 1.00 in    
Sea Level Pressure  
Sea Level Pressure 30.48 in    
Wind  
Wind Speed 2 mph (NW)    
Max Wind Speed 8 mph    
Max Gust Speed 9 mph    
Visibility 5 miles    
Events Fog    
T = Trace of Precipitation, MM = Missing Value Source: NWS Daily Summary

Daily Weather History Graph

Daily Weather History Graph

Search for Another Location

Airport:

Trip Planner

Search our weather history database for the weather conditions in past years. The results will help you decide how hot, cold, wet, or windy it might be!

Date:

Astronomy

Jan. 19, 2014 Rise Set
Actual Time 7:15 AM MST 5:13 PM MST
Civil Twilight 6:46 AM MST 5:41 PM MST
Nautical Twilight 6:15 AM MST 6:13 PM MST
Astronomical Twilight 5:43 AM MST 6:45 PM MST
Moon 8:48 PM MST (1/19) 8:51 AM MST (1/19)
Length of Visible Light 10h 54m
Length of Day
9h 58m
Waning Gibbous, 89% of the Moon is Illuminated
Jan 19
Waning Gibbous
Jan 23
Last Quarter
Jan 30
New
Feb 6
First Quarter
Feb 14
Full

Hourly Weather History & Observations

Time (MST) Temp. Windchill Dew Point Humidity Pressure Visibility Wind Dir Wind Speed Gust Speed Precip Events Conditions
12:52 AM -5.1 °F -15.8 °F -9.0 °F 83% 30.59 in 9.0 mi NE 4.6 mph - N/A   Clear
1:09 AM -5.1 °F -13.6 °F -9.0 °F 83% 30.36 in 6.0 mi NE 3.5 mph - N/A   Scattered Clouds
1:17 AM -6.0 °F - -9.0 °F 87% 30.36 in 5.0 mi Calm Calm - N/A   Mostly Cloudy
1:21 AM -6.0 °F - -9.0 °F 87% 30.35 in 1.5 mi Calm Calm - N/A   Mostly Cloudy
1:29 AM -6.0 °F - -9.0 °F 87% 30.36 in 0.2 mi Calm Calm - N/A Fog Light Freezing Fog
1:52 AM -5.1 °F - -7.1 °F 91% 30.57 in 0.2 mi Calm Calm - N/A Fog Light Freezing Fog
2:01 AM -5.1 °F -15.8 °F -7.1 °F 91% 30.35 in 2.0 mi NE 4.6 mph - N/A   Overcast
2:21 AM -4.0 °F - -8.0 °F 83% 30.36 in 7.0 mi Calm Calm - N/A   Overcast
2:41 AM -6.0 °F - -9.9 °F 83% 30.37 in 1.8 mi Calm Calm - N/A   Overcast
2:50 AM -7.6 °F - -9.4 °F 92% 30.37 in 0.2 mi Calm Calm - N/A Fog Light Freezing Fog
2:52 AM -7.1 °F - -9.9 °F 87% 30.59 in 0.2 mi Calm Calm - N/A Fog Light Freezing Fog
3:13 AM -5.1 °F - -9.0 °F 83% 30.36 in 2.5 mi Calm Calm - N/A   Overcast
3:20 AM -6.0 °F - -9.9 °F 83% 30.36 in 5.0 mi Calm Calm - N/A   Overcast
3:25 AM -5.1 °F - -11.0 °F 76% 30.36 in 1.2 mi Calm Calm - N/A   Haze
3:32 AM -4.0 °F - -9.0 °F 79% 30.36 in 0.2 mi Calm Calm - N/A   Haze
3:52 AM -2.9 °F - -8.0 °F 79% 30.56 in 0.2 mi Calm Calm - N/A   Haze
4:16 AM -4.0 °F - -9.0 °F 79% 30.35 in 2.5 mi Calm Calm - N/A   Haze
4:27 AM -4.0 °F -14.6 °F -9.0 °F 79% 30.35 in 0.8 mi SSW 4.6 mph - N/A   Haze
4:52 AM -2.9 °F - -8.0 °F 79% 30.59 in 0.2 mi Calm Calm - N/A   Haze
5:52 AM -2.0 °F -12.2 °F -6.0 °F 83% 30.63 in 0.2 mi NW 4.6 mph - N/A Fog Light Freezing Fog
6:04 AM -0.9 °F - -7.1 °F 75% 30.34 in 2.0 mi Calm Calm - N/A   Haze
6:13 AM -2.0 °F -10.1 °F -7.1 °F 79% 30.34 in 5.0 mi WNW 3.5 mph - N/A   Haze
6:20 AM -2.0 °F -12.2 °F -8.0 °F 76% 30.35 in 1.5 mi NNW 4.6 mph - N/A   Haze
6:30 AM -2.0 °F -10.1 °F -6.0 °F 83% 30.35 in 0.5 mi NW 3.5 mph - N/A Fog Light Freezing Fog
6:47 AM -0.4 °F - -5.8 °F 78% 30.35 in 1.2 mi Calm Calm - N/A   Haze
6:52 AM -0.0 °F - -5.1 °F 79% 30.66 in 1.8 mi Calm Calm - N/A   Haze
7:25 AM -2.9 °F - -8.0 °F 79% 30.36 in 3.0 mi Calm Calm - N/A   Haze
7:52 AM -2.9 °F - -9.0 °F 75% 30.71 in 1.2 mi Calm Calm - N/A   Haze
7:59 AM -2.9 °F - -7.1 °F 82% 30.36 in 0.2 mi Calm Calm - N/A Fog Light Freezing Fog
8:27 AM -0.0 °F - -6.0 °F 76% 30.36 in 1.8 mi Calm Calm - N/A   Haze
8:31 AM -0.0 °F - -5.1 °F 79% 30.37 in 3.0 mi Calm Calm - N/A   Haze
8:52 AM 1.9 °F - -4.0 °F 76% 30.71 in 6.0 mi Calm Calm - N/A   Haze
9:41 AM 5.0 °F - 1.0 °F 84% 30.38 in 5.0 mi Calm Calm - N/A   Scattered Clouds
9:52 AM 6.1 °F -0.9 °F 1.9 °F 83% 30.71 in 4.0 mi SSW 3.5 mph - N/A   Clear
10:52 AM 8.1 °F - 3.9 °F 83% 30.70 in 6.0 mi Calm Calm - N/A   Clear
11:52 AM 12.0 °F 4.1 °F 7.0 °F 80% 30.62 in 8.0 mi South 4.6 mph - N/A   Clear
12:52 PM 18.0 °F - 10.9 °F 74% 30.55 in 10.0 mi Calm Calm - N/A   Clear
1:52 PM 25.0 °F - 12.9 °F 60% 30.48 in 10.0 mi Calm Calm - N/A   Clear
2:52 PM 28.9 °F 21.9 °F 14.0 °F 54% 30.47 in 10.0 mi West 6.9 mph - N/A   Clear
3:52 PM 27.0 °F 21.6 °F 15.1 °F 61% 30.45 in 10.0 mi WSW 4.6 mph - N/A   Clear
4:52 PM 25.0 °F - 14.0 °F 63% 30.47 in 10.0 mi Calm Calm - N/A   Clear
5:52 PM 16.0 °F 7.4 °F 10.0 °F 77% 30.52 in 10.0 mi NNE 5.8 mph - N/A   Clear
6:52 PM 10.9 °F 2.9 °F 7.0 °F 84% 30.54 in 10.0 mi NE 4.6 mph - N/A   Clear
7:52 PM 9.0 °F 2.4 °F 3.9 °F 80% 30.57 in 10.0 mi WNW 3.5 mph - N/A   Clear
8:52 PM 3.9 °F -5.3 °F -0.0 °F 84% 30.58 in 10.0 mi West 4.6 mph - N/A   Clear
9:52 PM 3.9 °F -5.3 °F 1.0 °F 88% 30.56 in 10.0 mi North 4.6 mph - N/A   Clear
10:52 PM 3.0 °F - -0.0 °F 87% 30.56 in 10.0 mi Calm Calm - N/A   Clear
11:52 PM -2.0 °F -10.1 °F -6.0 °F 83% 30.56 in 10.0 mi WSW 3.5 mph - N/A   Clear